Weather Roundup
Issued by NWS Springfield, MO

Home | Current Version | Previous Version | Text Only | Print | Product List | Glossary On
Versions: 1 2 3 4 5 6 7 8 9 10 11 12 13 14 15 16 17 18 19 20 21 22 23 24 25 26 27 28 29 30 31 32 33 34 35 36 37 38 39 40 41 42 43 44 45 46 47 48 49 50
000
NZUS99 KSGF 261407
HRRSGF

HOURLY WEATHER
NATIONAL WEATHER SERVICE SPRINGFIELD MO
900 AM CDT THU MAR 26 2015

......SGF CWA......

CITY           SKY/WX    TMP DP  RH WIND       PRES   REMARKS
SPRINGFIELD    CLOUDY    40  35  83 N17       30.12R WCI  31
JOPLIN         CLOUDY    40  33  76 N13       30.17S WCI  32
WEST PLAINS    LGT RAIN  41  38  89 MISG      30.06R FOG
ROLLA          CLOUDY    37  32  82 MISG      30.08R
OSAGE BEACH    CLOUDY    37  30  75 N13       30.14R WCI  29
BRANSON        LGT RAIN  41  41 100 N14       30.10R FOG

......SURROUNDING SGF CWA......

CITY           SKY/WX    TMP DP  RH WIND       PRES   REMARKS
CHANUTE        PTSUNNY   39  33  79 N14       30.21S WCI  31
PARSONS        MOSUNNY   41  34  76 N12       30.21S
COFFEYVILLE    MOSUNNY   41  34  76 N16       30.20R
EMPORIA        SUNNY     36  29  75 N9        30.23S WCI  29
GROVE OK       CLOUDY    43  36  75 N9G17     30.16S
ROGERS AR      LGT RAIN  39  37  93 N12G20    30.13R WCI  32
SILOAM SPRINGS CLOUDY    41  34  75 N17       30.13S
HARRISON AR    LGT RAIN  42  42 100 N9        30.08R FOG
NEAR YELLVILLE CLOUDY    45  39  81 N12G25    30.06R

......KANSAS AND MISSOURI......

CITY           SKY/WX    TMP DP  RH WIND       PRES   REMARKS
KANSAS CTY INT MOSUNNY   35  30  82 NW6       30.22R WCI  30
DOWNTOWN KC    MOSUNNY   38  29  70 N8        30.22S WCI  32
COLUMBIA       MOSUNNY   37  29  72 N15       30.14S WCI  28
SEDALIA        MOSUNNY   38  29  70 N14       30.18  WCI  30
ST JOSEPH      SUNNY     35  29  78 N9        30.24R WCI  28
ST LOUIS       CLOUDY    40  32  73 N13       30.08S WCI  32
SPIRIT OF STL  CLOUDY    38  29  70 N13G23    30.09R WCI  30
KIRKSVILLE     SUNNY     35  27  72 NW8       30.16R WCI  29
WICHITA        MOSUNNY   38  29  70 N10       30.26R WCI  31
TOPEKA         SUNNY     36  30  79 NW6       30.26R WCI  31
OLATHE         MOSUNNY   37  29  72 N9        30.21R WCI  30

......TENNESSEE......

CITY           SKY/WX    TMP DP  RH WIND       PRES   REMARKS
MEMPHIS        LGT RAIN  63  55  75 SE5       29.87F
NASHVILLE      PTSUNNY   61  58  90 W3        29.88S

......ARKANSAS.......

CITY           SKY/WX    TMP DP  RH WIND       PRES   REMARKS
FAYETTEVILLE   LGT RAIN  41  41 100 N18G25    30.10R
FT SMITH       LGT RAIN  49  43  80 N13       30.08R
LITTLE ROCK    CLOUDY    59  55  87 NW7       29.93R

......OKLAHOMA.......

CITY           SKY/WX    TMP DP  RH WIND       PRES   REMARKS
TULSA          MOSUNNY   44  37  76 N18       30.17R
PONCA CITY     SUNNY     42  33  70 N12       30.24R
MCALESTER      CLOUDY    46  41  82 N22       30.13R
OKLAHOMA CITY  SUNNY     44  36  72 N23G31    30.22R

......IOWA............

CITY           SKY/WX    TMP DP  RH WIND       PRES   REMARKS
DES MOINES     MOSUNNY   35  23  61 NW13      30.17R WCI  26
QUAD CITIES    SUNNY     34  24  67 NW13      30.07S WCI  25

......ILLINOIS........

CITY           SKY/WX    TMP DP  RH WIND       PRES   REMARKS
QUINCY         SUNNY     35  28  75 NW15      30.12R WCI  25
CHICAGO        PTSUNNY   34  26  72 NW8       29.97S WCI  27



USA.gov is the U.S. government's official web portal to all federal, state and local government web resources and services.